Sisseton, SD

1:59 PM CDT on May 29, 2017 (GMT -0500)
Sisseton

Weather History for K8D3 - August, 2013

Change the Weather History Date:

Saturday, August 31, 2013

  Actual Average Record
Temperature  
Mean Temperature 77 °F 66 °F  
Max Temperature 92 °F 78 °F 94 °F (1948)
Min Temperature 62 °F 54 °F 39 °F (1987)
Degree Days  
Heating Degree Days 0 2  
Month to date heating degree days 23 28  
Since 1 June heating degree days 118 105  
Since 1 July heating degree days 49 43  
Cooling Degree Days 12 3  
Month to date cooling degree days 187 157  
Year to date cooling degree days 535 479  
Since 1 June cooling degree days 510 456  
Growing Degree Days 26 (Base 50)    
Moisture  
Dew Point 65 °F    
Average Humidity 72    
Maximum Humidity 100    
Minimum Humidity 44    
Precipitation  
Precipitation 0.25 in 0.09 in 1.54 in (1942)
Month to date precipitation 0.95 2.44  
Year to date precipitation 18.67 16.74  
Sea Level Pressure  
Sea Level Pressure 29.76 in    
Wind  
Wind Speed 7 mph (SW)    
Max Wind Speed 26 mph    
Max Gust Speed 37 mph    
T = Trace of Precipitation, MM = Missing Value Source: NWS Daily Summary

Daily Weather History Graph

Daily Weather History Graph

Search for Another Location

Airport or City:

Trip Planner

Search our weather history database for the weather conditions in past years. The results will help you decide how hot, cold, wet, or windy it might be!

Date:

Astronomy

Aug. 31, 2013 Rise Set
Actual Time 6:48 AM CDT 8:07 PM CDT
Civil Twilight 6:17 AM CDT 8:37 PM CDT
Nautical Twilight 5:40 AM CDT 9:14 PM CDT
Astronomical Twilight 5:00 AM CDT 9:54 PM CDT
Moon 2:09 AM CDT (8/31) 5:14 PM CDT (8/31)
Length of Visible Light 14h 20m
Length of Day
13h 18m
Waning Crescent, 21% of the Moon is Illuminated
Aug 31
Waning Crescent
Sep 5
New
Sep 12
First Quarter
Sep 19
Full
Sep 26
Last Quarter

Hourly Weather History & Observations

Time (CDT) Temp. Heat Index Dew Point Humidity Pressure Visibility Wind Dir Wind Speed Gust Speed Precip Events Conditions
12:56 AM 63.0 °F - 61.0 °F 93% 29.84 in - SSE 3.5 mph - N/A   Unknown
1:56 AM 62.1 °F - 60.1 °F 93% 29.86 in - Calm Calm - N/A   Unknown
2:56 AM 63.0 °F - 62.1 °F 97% 29.85 in - Calm Calm - N/A   Unknown
3:56 AM 66.0 °F - 64.0 °F 93% 29.83 in - SW 5.8 mph - N/A   Unknown
4:56 AM 69.1 °F - 66.0 °F 90% 29.74 in - South 6.9 mph - N/A   Unknown
5:56 AM 68.0 °F - 66.0 °F 93% 29.71 in - SW 9.2 mph - N/A   Unknown
6:56 AM 66.9 °F - 64.0 °F 90% 29.72 in - WSW 5.8 mph - N/A   Unknown
7:56 AM 70.0 °F - 66.0 °F 87% 29.76 in - East 4.6 mph - N/A   Unknown
8:56 AM 73.0 °F - 66.9 °F 81% 29.77 in - ESE 3.5 mph - N/A   Unknown
9:56 AM 78.1 °F - 69.1 °F 74% 29.76 in - South 5.8 mph - N/A   Unknown
10:56 AM 82.0 °F 85.5 °F 69.1 °F 65% 29.75 in - South 4.6 mph - N/A   Unknown
11:56 AM 86.0 °F 90.1 °F 69.1 °F 57% 29.72 in - South 8.1 mph 16.1 mph N/A   Unknown
12:56 PM 90.0 °F 91.7 °F 64.9 °F 43% 29.70 in - SW 8.1 mph - N/A   Unknown
1:56 PM 91.9 °F 94.5 °F 66.0 °F 42% 29.71 in - West 11.5 mph - N/A   Unknown
2:56 PM 89.1 °F 92.9 °F 68.0 °F 50% 29.73 in - NW 11.5 mph 23.0 mph N/A   Unknown
3:56 PM 73.0 °F - 70.0 °F 90% 29.75 in - NNW 23.0 mph 35.7 mph 0.10 in   Unknown
4:56 PM 73.9 °F - 70.0 °F 87% 29.74 in - West 3.5 mph - 0.15 in   Unknown
5:56 PM 79.0 °F - 70.0 °F 74% 29.67 in - East 6.9 mph - N/A   Unknown
6:56 PM 75.9 °F - 66.0 °F 71% 29.69 in - NNE 6.9 mph - N/A   Unknown
7:56 PM 73.0 °F - 69.1 °F 87% 29.73 in - Calm Calm - N/A   Unknown
8:56 PM 73.0 °F - 66.9 °F 81% 29.78 in - Calm Calm - N/A   Unknown
9:56 PM 71.1 °F - 59.0 °F 66% 29.79 in - NNW 9.2 mph - N/A   Unknown
10:56 PM 68.0 °F - 57.9 °F 70% 29.81 in - NW 8.1 mph - N/A   Unknown
11:56 PM 66.0 °F - 55.9 °F 70% 29.80 in - NW 8.1 mph - N/A   Unknown